| time (UTC) | temp F | wind direction | speed MPH | gust MPH | rain 1hr in | rain 24hr in | rain mn in | humidity % | barometer mb |
| 20260504050305 | 52 | 207 | 2.0 | 4.0 | 0.00 | 0.00 | 0.00 | 53 | 998.4 |
| 20260504045802 | 53 | 195 | 2.0 | 4.0 | 0.00 | 0.00 | 0.00 | 53 | 998.6 |
| 20260504045257 | 53 | 204 | 2.0 | 4.0 | 0.00 | 0.00 | 0.00 | 52 | 998.7 |
| 20260504044754 | 54 | 204 | 4.0 | 4.0 | 0.00 | 0.00 | 0.00 | 50 | 998.4 |
| 20260504044252 | 54 | 213 | 3.0 | 4.0 | 0.00 | 0.00 | 0.00 | 50 | 998.6 |
| 20260504043749 | 54 | 213 | 2.0 | 3.0 | 0.00 | 0.00 | 0.00 | 50 | 998.6 |
| 20260504043246 | 54 | 225 | 1.0 | 4.0 | 0.00 | 0.00 | 0.00 | 50 | 998.7 |
| 20260504042744 | 54 | 196 | 3.0 | 3.0 | 0.00 | 0.00 | 0.00 | 49 | 998.8 |
| 20260504042240 | 54 | 202 | 3.0 | 5.0 | 0.00 | 0.00 | 0.00 | 49 | 999.1 |
| 20260504041736 | 54 | 234 | 0.0 | 3.0 | 0.00 | 0.00 | 0.00 | 49 | 998.8 |
| 20260504041232 | 54 | 228 | 2.0 | 3.0 | 0.00 | 0.00 | 0.00 | 49 | 998.9 |
| 20260504040728 | 55 | 227 | 2.0 | 2.0 | 0.00 | 0.00 | 0.00 | 48 | 999.1 |
| 20260504040226 | 55 | 227 | 2.0 | 3.0 | 0.00 | 0.00 | 0.00 | 48 | 999.2 |
| 20260504035722 | 55 | 234 | 2.0 | 4.0 | 0.00 | 0.00 | 0.00 | 47 | 999.4 |
| 20260504035220 | 55 | 210 | 3.0 | 3.0 | 0.00 | 0.00 | 0.00 | 47 | 999.4 |
| 20260504034717 | 55 | 221 | 2.0 | 3.0 | 0.00 | 0.00 | 0.00 | 46 | 999.6 |
| 20260504034214 | 56 | 251 | 1.0 | 3.0 | 0.00 | 0.00 | 0.00 | 46 | 999.7 |
| 20260504033712 | 56 | 233 | 1.0 | 4.0 | 0.00 | 0.00 | 0.00 | 46 | 999.7 |
| 20260504033209 | 55 | 243 | 1.0 | 4.0 | 0.00 | 0.00 | 0.00 | 46 | 999.7 |
| 20260504032706 | 55 | 213 | 2.0 | 3.0 | 0.00 | 0.00 | 0.00 | 48 | 999.7 |
| 20260504032203 | 56 | 233 | 0.0 | 3.0 | 0.00 | 0.00 | 0.00 | 47 | 999.9 |
| 20260504031659 | 56 | 241 | 2.0 | 4.0 | 0.00 | 0.00 | 0.00 | 45 | 999.8 |
| 20260504031156 | 55 | 249 | 1.0 | 3.0 | 0.00 | 0.00 | 0.00 | 46 | 999.8 |
| 20260504030652 | 55 | 224 | 2.0 | 3.0 | 0.00 | 0.00 | 0.00 | 48 | 999.9 |
| 20260504030150 | 56 | 216 | 2.0 | 3.0 | 0.00 | 0.00 | 0.00 | 45 | 999.7 |
| 20260504025646 | 56 | 221 | 2.0 | 3.0 | 0.00 | 0.00 | 0.00 | 45 | 1000.0 |
| 20260504025143 | 56 | 224 | 0.0 | 2.0 | 0.00 | 0.00 | 0.00 | 46 | 1000.0 |
| 20260504024640 | 56 | 231 | 1.0 | 2.0 | 0.00 | 0.00 | 0.00 | 45 | 999.9 |
| 20260504024136 | 57 | 220 | 1.0 | 3.0 | 0.00 | 0.00 | 0.00 | 44 | 999.9 |
| 20260504023633 | 57 | 224 | 2.0 | 2.0 | 0.00 | 0.00 | 0.00 | 43 | 999.8 |
| 20260504023130 | 57 | 218 | 0.0 | 2.0 | 0.00 | 0.00 | 0.00 | 44 | 999.9 |
| 20260504022626 | 57 | 194 | 1.0 | 2.0 | 0.00 | 0.00 | 0.00 | 44 | 999.8 |
| 20260504022121 | 56 | 209 | 0.0 | 2.0 | 0.00 | 0.00 | 0.00 | 47 | 999.8 |
| 20260504021620 | 55 | 210 | 0.0 | 2.0 | 0.00 | 0.00 | 0.00 | 46 | 999.9 |
| 20260504021116 | 56 | 202 | 0.0 | 2.0 | 0.00 | 0.00 | 0.00 | 47 | 1000.0 |
| 20260504020614 | 56 | 229 | 1.0 | 2.0 | 0.00 | 0.00 | 0.00 | 47 | 1000.0 |
| 20260504020109 | 56 | 240 | 0.0 | 0.0 | 0.00 | 0.00 | 0.00 | 45 | 999.9 |
| 20260504015606 | 56 | 309 | 0.0 | 0.0 | 0.00 | 0.00 | 0.00 | 47 | 999.8 |
| 20260504015102 | 56 | 309 | 0.0 | 0.0 | 0.00 | 0.00 | 0.00 | 46 | 1000.0 |
| 20260504014558 | 57 | 304 | 0.0 | 1.0 | 0.00 | 0.00 | 0.00 | 45 | 999.9 |
| 20260504014056 | 58 | 235 | 0.0 | 2.0 | 0.00 | 0.00 | 0.00 | 44 | 999.9 |
| 20260504013553 | 58 | 169 | 0.0 | 1.0 | 0.00 | 0.00 | 0.00 | 46 | 999.8 |
| 20260504013050 | 59 | 326 | 0.0 | 2.0 | 0.00 | 0.00 | 0.00 | 44 | 999.8 |
| 20260504012547 | 59 | 157 | 0.0 | 1.0 | 0.00 | 0.00 | 0.00 | 42 | 999.9 |
| 20260504012045 | 60 | 66 | 0.0 | 3.0 | 0.00 | 0.00 | 0.00 | 43 | 999.8 |
| 20260504011542 | 61 | 41 | 0.0 | 3.0 | 0.00 | 0.00 | 0.00 | 41 | 999.9 |
| 20260504011038 | 61 | 343 | 1.0 | 3.0 | 0.00 | 0.00 | 0.00 | 40 | 999.9 |
| 20260504010533 | 62 | 326 | 0.0 | 3.0 | 0.00 | 0.00 | 0.00 | 40 | 999.9 |
| 20260504010030 | 62 | 72 | 0.0 | 3.0 | 0.00 | 0.00 | 0.00 | 38 | 999.7 |
| 20260504005527 | 63 | 104 | 0.0 | 3.0 | 0.00 | 0.00 | 0.00 | 37 | 999.6 |
| 20260504005024 | 64 | 119 | 0.0 | 3.0 | 0.00 | 0.00 | 0.00 | 36 | 999.7 |
| 20260504004522 | 65 | 264 | 1.0 | 5.0 | 0.00 | 0.00 | 0.00 | 34 | 999.5 |
| 20260504004019 | 65 | 108 | 0.0 | 8.0 | 0.00 | 0.00 | 0.00 | 34 | 999.7 |
| 20260504003515 | 65 | 331 | 1.0 | 6.0 | 0.00 | 0.00 | 0.00 | 34 | 1000.0 |
| 20260504003012 | 66 | 295 | 3.0 | 8.0 | 0.00 | 0.00 | 0.00 | 32 | 999.8 |
| 20260504002509 | 66 | 250 | 3.0 | 8.0 | 0.00 | 0.00 | 0.00 | 32 | 999.9 |
| 20260504002006 | 67 | 287 | 6.0 | 10.0 | 0.00 | 0.00 | 0.00 | 30 | 999.9 |
| 20260504001503 | 68 | 289 | 4.0 | 8.0 | 0.00 | 0.00 | 0.00 | 30 | 999.9 |
| 20260504001000 | 68 | 348 | 4.0 | 10.0 | 0.00 | 0.00 | 0.00 | 30 | 1000.0 |
| 20260504000457 | 67 | 314 | 3.0 | 10.0 | 0.00 | 0.00 | 0.00 | 31 | 999.9 |
| 20260503235954 | 67 | 337 | 10.0 | 13.0 | 0.00 | 0.00 | 0.00 | 30 | 999.9 |
| 20260503235452 | 68 | 292 | 7.0 | 16.0 | 0.00 | 0.00 | 0.00 | 30 | 999.6 |
| 20260503234949 | 68 | 199 | 3.0 | 12.0 | 0.00 | 0.00 | 0.00 | 31 | 999.8 |
| 20260503234446 | 68 | 279 | 4.0 | 11.0 | 0.00 | 0.00 | 0.00 | 30 | 999.8 |
| 20260503233945 | 68 | 333 | 6.0 | 12.0 | 0.00 | 0.00 | 0.00 | 29 | 999.8 |
| 20260503233440 | 68 | 340 | 4.0 | 12.0 | 0.00 | 0.00 | 0.00 | 31 | 999.9 |
| 20260503232937 | 69 | 333 | 3.0 | 10.0 | 0.00 | 0.00 | 0.00 | 29 | 999.8 |
| 20260503232434 | 69 | 264 | 3.0 | 15.0 | 0.00 | 0.00 | 0.00 | 29 | 1000.1 |
| 20260503231932 | 70 | 12 | 2.0 | 13.0 | 0.00 | 0.00 | 0.00 | 29 | 999.9 |
| 20260503231429 | 69 | 332 | 4.0 | 14.0 | 0.00 | 0.00 | 0.00 | 29 | 999.9 |
| 20260503230926 | 70 | 298 | 13.0 | 17.0 | 0.00 | 0.00 | 0.00 | 28 | 1000.1 |
| 20260503230422 | 70 | 255 | 4.0 | 17.0 | 0.00 | 0.00 | 0.00 | 28 | 999.8 |
| 20260503225920 | 70 | 359 | 5.0 | 16.0 | 0.00 | 0.00 | 0.00 | 28 | 999.9 |
| 20260503225416 | 71 | 344 | 10.0 | 14.0 | 0.00 | 0.00 | 0.00 | 29 | 999.9 |
| 20260503224912 | 71 | 293 | 4.0 | 11.0 | 0.00 | 0.00 | 0.00 | 28 | 999.8 |
| 20260503224409 | 71 | 305 | 5.0 | 16.0 | 0.00 | 0.00 | 0.00 | 30 | 999.9 |
| 20260503223907 | 70 | 81 | 2.0 | 16.0 | 0.00 | 0.00 | 0.00 | 31 | 999.8 |
| 20260503223405 | 71 | 296 | 4.0 | 11.0 | 0.00 | 0.00 | 0.00 | 30 | 999.8 |
| 20260503222900 | 71 | 339 | 5.0 | 22.0 | 0.00 | 0.00 | 0.00 | 31 | 999.9 |
| 20260503222359 | 72 | 287 | 4.0 | 7.0 | 0.00 | 0.00 | 0.00 | 30 | 999.9 |
| 20260503221856 | 71 | 321 | 7.0 | 12.0 | 0.00 | 0.00 | 0.00 | 30 | 999.8 |
| 20260503221355 | 71 | 42 | 6.0 | 15.0 | 0.00 | 0.00 | 0.00 | 30 | 999.7 |
| 20260503220850 | 71 | 331 | 4.0 | 11.0 | 0.00 | 0.00 | 0.00 | 30 | 999.7 |
| 20260503220347 | 71 | 211 | 2.0 | 11.0 | 0.00 | 0.00 | 0.00 | 31 | 999.6 |
| 20260503215844 | 71 | 329 | 5.0 | 16.0 | 0.00 | 0.00 | 0.00 | 31 | 999.9 |
| 20260503215342 | 72 | 318 | 3.0 | 17.0 | 0.00 | 0.00 | 0.00 | 31 | 999.6 |
| 20260503214839 | 71 | 235 | 0.0 | 13.0 | 0.00 | 0.00 | 0.00 | 32 | 999.7 |
| 20260503214336 | 71 | 202 | 3.0 | 20.0 | 0.00 | 0.00 | 0.00 | 31 | 999.8 |
| 20260503213833 | 71 | 8 | 6.0 | 16.0 | 0.00 | 0.00 | 0.00 | 33 | 999.6 |
| 20260503213331 | 71 | 322 | 3.0 | 13.0 | 0.00 | 0.00 | 0.00 | 34 | 999.5 |
| 20260503212828 | 71 | 325 | 7.0 | 20.0 | 0.00 | 0.00 | 0.00 | 33 | 999.7 |
| 20260503212326 | 71 | 277 | 10.0 | 14.0 | 0.00 | 0.00 | 0.00 | 34 | 999.8 |
| 20260503211823 | 72 | 311 | 4.0 | 13.0 | 0.00 | 0.00 | 0.00 | 34 | 999.9 |
| 20260503211319 | 71 | 293 | 2.0 | 9.0 | 0.00 | 0.00 | 0.00 | 35 | 999.9 |
| 20260503210819 | 71 | 312 | 11.0 | 12.0 | 0.00 | 0.00 | 0.00 | 33 | 999.9 |
| 20260503210317 | 72 | 27 | 5.0 | 17.0 | 0.00 | 0.00 | 0.00 | 34 | 999.9 |
| 20260503205812 | 71 | 324 | 5.0 | 16.0 | 0.00 | 0.00 | 0.00 | 34 | 1000.1 |
| 20260503205309 | 72 | 45 | 2.0 | 7.0 | 0.00 | 0.00 | 0.00 | 34 | 1000.1 |
| 20260503204805 | 71 | 323 | 6.0 | 11.0 | 0.00 | 0.00 | 0.00 | 32 | 1000.2 |
| 20260503204303 | 72 | 266 | 3.0 | 13.0 | 0.00 | 0.00 | 0.00 | 33 | 1000.4 |
| 20260503203800 | 71 | 64 | 4.0 | 11.0 | 0.00 | 0.00 | 0.00 | 33 | 1000.2 |
| 20260503203257 | 71 | 319 | 4.0 | 14.0 | 0.00 | 0.00 | 0.00 | 33 | 1000.3 |
| 20260503202754 | 72 | 319 | 9.0 | 17.0 | 0.00 | 0.00 | 0.00 | 33 | 1000.2 |
| 20260503202252 | 71 | 332 | 6.0 | 21.0 | 0.00 | 0.00 | 0.00 | 33 | 1000.2 |
| 20260503201744 | 71 | 340 | 3.0 | 14.0 | 0.00 | 0.00 | 0.00 | 34 | 1000.3 |
| 20260503201241 | 70 | 346 | 6.0 | 11.0 | 0.00 | 0.00 | 0.00 | 35 | 1000.2 |
| 20260503200738 | 71 | 38 | 3.0 | 8.0 | 0.00 | 0.00 | 0.00 | 35 | 1000.4 |
| 20260503200234 | 70 | 11 | 6.0 | 10.0 | 0.00 | 0.00 | 0.00 | 34 | 1000.5 |
| 20260503195731 | 70 | 18 | 7.0 | 15.0 | 0.00 | 0.00 | 0.00 | 33 | 1000.3 |
| 20260503195228 | 71 | 17 | 5.0 | 14.0 | 0.00 | 0.00 | 0.00 | 32 | 1000.3 |
| 20260503194726 | 71 | 299 | 7.0 | 13.0 | 0.00 | 0.00 | 0.00 | 34 | 1000.3 |
| 20260503194221 | 71 | 307 | 4.0 | 15.0 | 0.00 | 0.00 | 0.00 | 33 | 1000.3 |
| 20260503193717 | 70 | 91 | 3.0 | 21.0 | 0.00 | 0.00 | 0.00 | 35 | 1000.4 |
| 20260503193214 | 69 | 286 | 3.0 | 12.0 | 0.00 | 0.00 | 0.00 | 36 | 1000.4 |
| 20260503192709 | 69 | 31 | 7.0 | 19.0 | 0.00 | 0.00 | 0.00 | 37 | 1000.4 |
| 20260503192205 | 71 | 293 | 5.0 | 13.0 | 0.00 | 0.00 | 0.00 | 35 | 1000.6 |
| 20260503191702 | 70 | 321 | 9.0 | 13.0 | 0.00 | 0.00 | 0.00 | 33 | 1000.5 |
| 20260503191159 | 70 | 302 | 5.0 | 15.0 | 0.00 | 0.00 | 0.00 | 31 | 1000.7 |
| 20260503190656 | 70 | 308 | 6.0 | 14.0 | 0.00 | 0.00 | 0.00 | 34 | 1000.6 |
| 20260503190152 | 70 | 10 | 5.0 | 17.0 | 0.00 | 0.00 | 0.00 | 34 | 1000.5 |
| 20260503185649 | 71 | 273 | 2.0 | 9.0 | 0.00 | 0.00 | 0.00 | 35 | 1000.5 |
| 20260503185144 | 69 | 140 | 3.0 | 11.0 | 0.00 | 0.00 | 0.00 | 40 | 1000.7 |
| 20260503184634 | 69 | 42 | 6.0 | 18.0 | 0.00 | 0.00 | 0.00 | 39 | 1000.6 |
| 20260503184130 | 69 | 298 | 3.0 | 12.0 | 0.00 | 0.00 | 0.00 | 39 | 1000.7 |
| 20260503183627 | 69 | 345 | 6.0 | 14.0 | 0.00 | 0.00 | 0.00 | 39 | 1000.6 |
| 20260503183124 | 68 | 326 | 6.0 | 14.0 | 0.00 | 0.00 | 0.00 | 41 | 1000.4 |
| 20260503182622 | 68 | 8 | 5.0 | 10.0 | 0.00 | 0.00 | 0.00 | 42 | 1000.8 |
| 20260503182121 | 68 | 28 | 6.0 | 15.0 | 0.00 | 0.00 | 0.00 | 42 | 1000.7 |
| 20260503181617 | 68 | 354 | 4.0 | 9.0 | 0.00 | 0.00 | 0.00 | 44 | 1001.0 |
| 20260503181114 | 68 | 326 | 5.0 | 14.0 | 0.00 | 0.00 | 0.00 | 41 | 1000.9 |
| 20260503180611 | 68 | 324 | 4.0 | 9.0 | 0.00 | 0.00 | 0.00 | 40 | 1000.8 |
| 20260503180109 | 68 | 311 | 4.0 | 10.0 | 0.00 | 0.00 | 0.00 | 42 | 1000.9 |
| 20260503175605 | 68 | 186 | 3.0 | 15.0 | 0.00 | 0.00 | 0.00 | 45 | 1001.1 |
| 20260503175103 | 67 | 326 | 9.0 | 16.0 | 0.00 | 0.00 | 0.00 | 40 | 1000.8 |
| 20260503174559 | 68 | 281 | 3.0 | 7.0 | 0.00 | 0.00 | 0.00 | 41 | 1000.9 |
| 20260503174056 | 67 | 323 | 3.0 | 13.0 | 0.00 | 0.00 | 0.00 | 42 | 1001.1 |
| 20260503173551 | 67 | 18 | 7.0 | 15.0 | 0.00 | 0.00 | 0.00 | 41 | 1001.0 |
| 20260503173048 | 67 | 0 | 4.0 | 12.0 | 0.00 | 0.00 | 0.00 | 42 | 1000.9 |
| 20260503172545 | 66 | 316 | 5.0 | 10.0 | 0.00 | 0.00 | 0.00 | 44 | 1000.8 |
| 20260503172042 | 66 | 10 | 7.0 | 12.0 | 0.00 | 0.00 | 0.00 | 43 | 1000.9 |
| 20260503171538 | 66 | 301 | 3.0 | 15.0 | 0.00 | 0.00 | 0.00 | 43 | 1001.2 |
| 20260503171036 | 66 | 312 | 5.0 | 10.0 | 0.00 | 0.00 | 0.00 | 44 | 1001.0 |
| 20260503170532 | 66 | 307 | 7.0 | 16.0 | 0.00 | 0.00 | 0.00 | 45 | 1001.0 |
| 20260503150925 | 64 | 248 | 2.0 | 7.0 | 0.00 | 0.00 | 0.00 | 43 | 1000.9 |
| 20260503150421 | 64 | 349 | 4.0 | 7.0 | 0.00 | 0.00 | 0.00 | 42 | 1001.0 |
| 20260503131314 | 57 | 204 | 5.0 | 12.0 | 0.00 | 0.00 | 0.00 | 51 | 1000.8 |
| 20260503130812 | 56 | 247 | 8.0 | 11.0 | 0.00 | 0.00 | 0.00 | 50 | 1001.2 |
| 20260503130309 | 55 | 244 | 7.0 | 15.0 | 0.00 | 0.00 | 0.00 | 51 | 1001.1 |
| 20260503110703 | 53 | 223 | 3.0 | 15.0 | 0.00 | 0.00 | 0.00 | 57 | 1000.9 |
| 20260503110200 | 53 | 211 | 13.0 | 13.0 | 0.00 | 0.00 | 0.00 | 58 | 1000.9 |
| 20260503100121 | 53 | 200 | 11.0 | 12.0 | 0.00 | 0.00 | 0.00 | 53 | 1001.5 |
| 20260503081503 | 53 | 251 | 2.0 | 9.0 | 0.00 | 0.00 | 0.00 | 54 | 1003.4 |
| 20260503081000 | 53 | 234 | 4.0 | 8.0 | 0.00 | 0.00 | 0.00 | 53 | 1003.5 |
| 20260503080451 | 54 | 229 | 5.0 | 15.0 | 0.00 | 0.00 | 0.00 | 51 | 1003.6 |
| 20260503072928 | 53 | 236 | 4.0 | 9.0 | 0.00 | 0.00 | 0.00 | 52 | 1003.6 |
| 20260503072425 | 53 | 219 | 5.0 | 12.0 | 0.00 | 0.00 | 0.00 | 51 | 1003.6 |
| 20260503071922 | 53 | 221 | 4.0 | 11.0 | 0.00 | 0.00 | 0.00 | 52 | 1003.5 |
| 20260503071419 | 52 | 227 | 4.0 | 9.0 | 0.00 | 0.00 | 0.00 | 53 | 1003.7 |
| 20260503070915 | 52 | 230 | 4.0 | 8.0 | 0.00 | 0.00 | 0.00 | 52 | 1003.9 |
| 20260503070413 | 52 | 221 | 5.0 | 8.0 | 0.00 | 0.00 | 0.00 | 53 | 1003.9 |